Flag for Canada Weather past 2 weeks in Cumberland County, Nova Scotia, Canada

Now
46 °F

Cool.


Feels Like: 41 °F
Forecast: 25 / 51 °F
Wind: 9 mph from Northeast

Location: Kentville


UV Index: 5 (Moderate)

Visibility: N/A


Pressure: 30.38 "Hg

Humidity: 44%

Dew point: 25 °F

Location of Cumberland CountyLocation

Historic Weather in Cumberland County

°F

Cumberland County temperature yesterday

Maximum temperature yesterday: 40 °F (at 5:00 PM)
Minimum temperature yesterday: 24 °F (at 7:00 AM)
Average temperature yesterday: 33 °F

Past Weeks' High & Low Weather Summary

 TemperatureHumidityPressure
High73 °F (Apr 14, 3:00 PM)100% (Apr 3, 9:00 PM)30.82 "Hg (Apr 3, 9:00 PM)
Low24 °F (Apr 18, 7:00 AM)23% (Apr 10, 6:00 PM)29.25 "Hg (Apr 9, 3:00 AM)
Average43 °F68%30.03 "Hg
* Reported Apr 3 5:00 PM — Apr 18 5:00 PM, Cumberland County, Weather by CustomWeather, © 2014

Note: Actual official high and low records may vary slightly from our data, if they occured in-between our weather recording intervals... More about our weather records

Advertising

Historic Weather Conditions — Data for Previous 24 hours

 ConditionsComfort  
Time TempWeatherWind HumidityBarometerVisibility
5:00 PM
Apr 18
46 °FCool.9 mph44%30.38 "HgN/A
4:00 PM47 °FCool.6 mph43%30.44 "HgN/A
3:00 PM45 °FCool.9 mph48%30.47 "HgN/A
2:00 PM44 °FQuite cool.7 mph51%30.50 "HgN/A
1:00 PM42 °FQuite cool.8 mph58%30.51 "HgN/A
12:00 PM43 °FQuite cool.8 mph47%30.56 "HgN/A
11:00 AM38 °FChilly.7 mph55%30.61 "HgN/A
10:00 AM35 °FChilly.6 mph59%30.64 "HgN/A
9:00 AM32 °FChilly.6 mph56%30.66 "HgN/A
8:00 AM29 °FChilly.3 mph74%30.68 "HgN/A
7:00 AM24 °FCold.1 mph92%30.68 "HgN/A
6:00 AM25 °FCold.1 mph82%30.67 "HgN/A
5:00 AM24 °FCold.2 mph79%30.67 "HgN/A
4:00 AM25 °FChilly.1 mph74%30.69 "HgN/A
3:00 AM26 °FChilly.1 mph67%30.71 "HgN/A
2:00 AM28 °FChilly.No wind53%30.72 "HgN/A
1:00 AM28 °FChilly.No wind54%30.74 "HgN/A
12:00 AM30 °FChilly.2 mph44%30.76 "HgN/A
11:00 PM
Apr 17
32 °FChilly.3 mph50%30.77 "HgN/A
10:00 PM34 °FChilly.5 mph53%30.78 "HgN/A
9:00 PM35 °FChilly.6 mph49%30.78 "HgN/A
8:00 PM37 °FChilly.5 mph34%30.76 "HgN/A
7:00 PM40 °FChilly.8 mph29%30.75 "HgN/A
6:00 PM40 °FChilly.9 mph30%30.76 "HgN/A
Weather by CustomWeather, © 2014

See weather overview